Flag for U.S.A. Weather past 2 weeks in Tacoma, Washington, U.S.A.

Now
52 °F

Passing clouds.


Feels Like: 46 °F
Forecast: 47 / 55 °F
Wind: 18 mph from Southwest

Location: Tacoma Narrows Airport

Current Time: Oct 26, 2014 at 12:10:32 AM

Latest Report: Oct 25, 2014 at 10:53 PM


Visibility: 10 mi

Pressure: 29.71 "Hg

Humidity: 75%

Dew point: 44 °F

Location of TacomaLocation

Historic Weather in Tacoma — Graph

°F

Tacoma temperature yesterday

Maximum temperature yesterday: 62 °F (at 4:53 PM)
Minimum temperature yesterday: 49 °F (at 5:53 AM)
Average temperature yesterday: 53 °F

Past Weeks' High & Low Weather Summary

 TemperatureHumidityPressure
High70 °F (Oct 13, 3:53 PM)100% (Oct 13, 8:53 AM)30.25 "Hg (Oct 13, 8:53 AM)
Low47 °F (Oct 24, 7:53 AM)44% (Oct 13, 2:53 PM)29.27 "Hg (Oct 25, 4:53 PM)
Average56 °F83%29.83 "Hg
* Reported Oct 10 10:53 PM — Oct 25 10:53 PM, Tacoma, Weather by CustomWeather, © 2014

Note: Actual official high and low records may vary slightly from our data, if they occured in-between our weather recording intervals... More about our weather records

Advertising

Tacoma weather history for previous 24 hours

 ConditionsComfort  
Time TempWeatherWind HumidityBarometerVisibility
10:53 PM
Oct 25
52 °FPassing clouds.18 mph75%29.71 "Hg10 mi
9:53 PM53 °FClear.16 mph74%29.65 "Hg10 mi
8:53 PM52 °FLight rain. Overcast.24 mph83%29.59 "Hg10 mi
7:53 PM53 °FLight rain. Mostly cloudy.22 mph86%29.47 "Hg10 mi
6:53 PM56 °FLight rain. Cloudy.24 mph90%29.34 "Hg7 mi
5:53 PM60 °FLight rain. Cloudy.22 mph69%29.28 "Hg10 mi
4:53 PM62 °FMostly cloudy.23 mph62%29.27 "Hg10 mi
3:53 PM59 °FMostly cloudy.12 mph72%29.28 "Hg10 mi
2:53 PM56 °FLight rain. Overcast.No wind84%29.30 "Hg9 mi
1:53 PM54 °FLight rain. Fog.6 mph86%29.33 "Hg6 mi
12:53 PM55 °FPartly sunny.5 mph83%29.36 "Hg10 mi
11:53 AM55 °FLow clouds.9 mph87%29.38 "Hg10 mi
10:53 AM53 °FPartly sunny.5 mph89%29.45 "Hg10 mi
9:53 AM52 °FBroken clouds.No wind86%29.50 "Hg10 mi
8:56 AM50 °FBroken clouds.5 mph93%29.51 "Hg10 mi
7:53 AM50 °FLight rain. Mostly cloudy.5 mph93%29.55 "Hg10 mi
6:53 AM49 °FOvercast.9 mph93%29.52 "Hg10 mi
5:53 AM49 °FClear.8 mph90%29.48 "Hg10 mi
4:53 AM50 °FClear.9 mph89%29.52 "Hg10 mi
3:53 AM50 °FPassing clouds.8 mph89%29.57 "Hg10 mi
2:53 AM50 °FPassing clouds.8 mph89%29.62 "Hg10 mi
1:53 AM50 °FPassing clouds.7 mph93%29.65 "Hg10 mi
12:53 AM50 °FMostly cloudy.10 mph93%29.69 "Hg10 mi
Weather by CustomWeather, © 2014

See weather overviewHow to use our weather pages